Weather Roundup
Issued by NWS

Home | Current Version | Previous Version | Text Only | Print | Product List | Glossary On
Versions: 1 2 3 4 5 6 7 8 9 10 11 12 13 14 15 16 17 18 19 20 21 22 23 24 25 26 27 28 29 30 31 32 33 34 35 36 37 38 39 40 41 42 43 44 45 46 47 48 49 50
000
NZUS93 KARX 171310
HRRWXR

CURRENT HOURLY OBSERVATIONS ACROSS
MUCH OF THE UPPER MISSISSIPPI VALLEY
NATIONAL WEATHER SERVICE LA CROSSE WI
700 AM CST TUE JAN 17 2017


...SOUTHEAST MINNESOTA...


CITY           SKY/WX    TMP DP  RH WIND       PRES   REMARKS
ROCHESTER      MIX PCPN  32  32 100 NW8       29.88R FOG     WCI  25
ROCHESTER/MAYO CLOUDY    32  32 100 NW3       29.89S
WINONA         MIX PCPN  34  32  93 NW3       29.89F
AUSTIN         CLOUDY    30  30 100 N6        29.89S FOG     WCI  24
ALBERT LEA     CLOUDY    30  30 100 NW3       29.92R FOG
DODGE CENTER   CLOUDY    30  30 100 CALM      29.89S FOG
PRESTON        CLOUDY    31  31  97 N5        29.87S FOG     WCI  27
OWATONNA       LGT SNOW  30  28  93 NW3       29.93R VSB 3/4
FARIBAULT      LGT SNOW  30  30 100 NW6       29.93R WCI  24
$$

...ELSEWHERE IN MINNESOTA...


CITY           SKY/WX    TMP DP  RH WIND       PRES   REMARKS
MINNEAPOLIS    FRZ RAIN  31  28  89 NW7       29.94R FOG     WCI  24
INTNL FALLS    CLOUDY    -3 -10  72 CALM      29.93F
DULUTH         FOG       19  19 100 CALM      29.92S VSB 1/8
RED WING       MIX PCPN  34  32  93 CALM      29.91R
REDWOOD FALLS  CLOUDY    23  19  85 NW8       29.98S WCI  14
MANKATO        MOCLDY    30  28  92 NW10      29.95S WCI  21
WORTHINGTON    CLOUDY    26  24  92 NW9       29.97  FOG     WCI  17
FAIRMONT       FOG       28  27  96 NW13      29.96S VSB 1/2 WCI  17
$$

...SOUTHWEST WISCONSIN...


CITY           SKY/WX    TMP DP  RH WIND       PRES   REMARKS
LA CROSSE      CLOUDY    36  33  89 NW8       29.87S FOG     WCI  30
PRAIRIE DU CHI CLOUDY    33  32  97 CALM      29.86S FOG
BOSCOBEL       CLOUDY    34  33  96 NW3       29.86S FOG
LONE ROCK      CLOUDY    34  32  92 CALM      29.85R FOG
PLATTEVILLE    CLOUDY    33  33 100 NW7       29.84R VSB 1/2 WCI  27
FORT MC COY    CLOUDY    32  32 100 CALM      29.87S FOG
CAMP DOUGLAS   CLOUDY    32  32 100 NW3       29.85R FOG
MAUSTON-NEW LI CLOUDY    33  32  99 W6        29.85R FOG     WCI  27
VIROQUA        CLOUDY    32  32 100 CALM      29.84R
WIS DELLS      CLOUDY    32  32 100 CALM      29.82S FOG
$$

...ELSEWHERE IN WISCONSIN...


CITY           SKY/WX    TMP DP  RH WIND       PRES   REMARKS
MILWAUKEE      DRZL/FOG  38  36  92 NW9       29.79R VSB 1/2 WCI  31
MADISON        FOG       33  33 100 N6        29.82S VSB 1/2 WCI  28
GREEN BAY      CLOUDY    35  34  96 N10       29.84R FOG     WCI  27
EAU CLAIRE     LGT SNOW  33  32  96 N6        29.89S FOG     WCI  28
BLACK RVR FLS  CLOUDY    33  33 100 N3        29.86S FOG
MEDFORD        MIX PCPN  32  31  98 NE6       29.85S WCI  26
WAUSAU         CLOUDY    33  32  96 N5        29.84S WCI  29
WIS RAPIDS     CLOUDY    33  33 100 N5        29.85S WCI  29
MARSHFIELD     CLOUDY    33  31  92 N7        29.84R FOG     WCI  27
RICE LAKE      MIX PCPN  33  32  96 N7        29.92S WCI  27
$$

...NORTHEAST IOWA...


CITY           SKY/WX    TMP DP  RH WIND       PRES   REMARKS
WATERLOO       CLOUDY    33  31  92 NW9       29.89R FOG     WCI  25
DUBUQUE        CLOUDY    32  32 100 NW8       29.83S FOG     WCI  25
DECORAH        FOG       32  32 100 NW7       29.85F VSB 1/4 WCI  26
MASON CITY     CLOUDY    31  30  96 NW10      29.92S FOG     WCI  22
CHARLES CITY   CLOUDY    32  32 100 MISG      29.89S FOG
OELWEIN        CLOUDY    32  32 100 NW12      29.87S FOG     WCI  23
$$

...ELSEWHERE IN IOWA...


CITY           SKY/WX    TMP DP  RH WIND       PRES   REMARKS
DES MOINES     DRIZZLE   34  32  92 NW9       29.97R FOG     WCI  27
IOWA CITY      CLOUDY    35  33  92 W8        29.92R FOG     WCI  29
FORT DODGE     CLOUDY    32  28  86 CALM      29.96R
MARSHALLTOWN   CLOUDY    33  33 100 W8        29.91R FOG     WCI  26
CEDAR RAPIDS   CLOUDY    32  32 100 W9        29.88R FOG     WCI  24
$$

...NORTHERN ILLINOIS...


CITY           SKY/WX    TMP DP  RH WIND       PRES   REMARKS
CHICAGO-OHARE  FOG       37  37 100 W6        29.78R VSB 1   WCI  32
CHICAGO-MIDWAY CLOUDY    37  37 100 W9        29.79R FOG     WCI  30
MOLINE         CLOUDY    35  33  92 SW9       29.87R FOG     WCI  28
ROCKFORD       FOG       35  34  96 NW6       29.82F VSB 1/2 WCI  30
PEORIA         CLOUDY    39  39 100 W10       29.89R WCI  32
$$

NOTE: "FAIR" INDICATES FEW OR NO CLOUDS BELOW 12,000 FEET WITH NO
SIGNIFICANT WEATHER AND/OR OBSTRUCTIONS TO VISIBILITY. WIND
SPEEDS ARE IN MILES-PER-HOUR.




USA.gov is the U.S. government's official web portal to all federal, state and local government web resources and services.